Jacqueline Cochran Regional Airport Palm Springs US
ICAO: KTRM
IATA: TRM
Category: Medium
Scheduled Services: No

Elevation: -115 ft
TransAlt. 18000 ft.

Airport Communications:
PALM SPRINGS APP/DEP:135.275
ASOS:118.325
RIVERSIDE RDO:122.3
CTAF/UNICOM:123

KTRM Zoom In..

If you have problems with the map follow the link
https://www.worldairports.se/pages/airport.php?
ICAO=KTRM

Runways:

(A) RW 12 length 4995 ft width 100 ft
---- / hdg 122

(B) RW 17 length 8500 ft width 150 ft
---- / hdg 167

(C) RW 30 length 4995 ft width 100 ft
---- / hdg 302

(D) RW 35 length 8500 ft width 150 ft
---- / hdg 347

Location; KTRM
Day. 12 / Time. 09.52 Zulu
* Altimeter: 30.17
* Temperature: 11° c. 51.8°f.
* Wind from: KTR° Speed M kn.
Dewpoint: 06° c.
Visibility: 10 Statute Miles.
Clouds: Clear (automated report).

KTRM 120952Z AUTO 33006KT 10SM CLR 11/06 A3017 RMK AO2 SLP215 T01060056


Wind From KTR°
Speed M kn.

 
 
jpsmedia worldairports.se 2019   terms of use